Lid_Strength_Index
4 4 4 4 3 3 3 2 2 2 2 2 1 0 -0 -1 -1 1 5 4 4 2 2 3 3 4 4 5 4 4 9 11 10 9 8 6 7 5 4 5 5 4 4 4 2
5 4 4 4 3 3 3 3 2 2 2 2 1 1 0 -1 1 3 2 3 2 2 4 5 6 5 7 6 5 6 9 9 7 6 7 6 6 6 6 6 6 5 3 3 2
5 4 4 4 3 3 3 2 2 2 2 1 1 1 0 -0 3 5 -1 1 1 0 4 4 5 6 7 7 7 7 9 7 6 5 6 6 6 5 7 8 6 6 4 4 3
4 4 4 4 3 3 3 2 2 1 1 1 1 1 0 0 9 3 -1 0 0 2 4 5 7 8 9 9 7 9 8 7 6 6 6 7 6 7 6 6 4 4 4 4 3
5 4 4 4 3 3 2 2 1 1 1 1 1 1 1 4 5 1 -1 0 2 4 5 7 8 8 11 10 9 10 9 8 8 7 7 6 7 7 7 5 5 4 6 5 3
5 4 4 4 3 2 2 1 1 1 0 1 1 1 2 8 3 2 1 2 3 5 6 6 8 7 9 10 11 10 9 9 9 9 8 9 8 8 7 6 5 5 6 5 5
5 4 4 4 3 2 1 1 1 -0 -0 0 1 1 4 6 3 2 3 4 3 4 5 5 5 8 9 10 8 9 11 10 10 9 9 8 10 10 8 7 7 6 5 5 4
5 4 4 4 3 2 2 1 -0 -1 0 0 0 1 6 3 3 4 3 3 3 3 4 4 4 6 8 8 9 11 11 13 9 9 9 9 13 9 7 8 9 7 6 5 4
4 4 4 4 3 2 2 1 1 -1 -0 -0 1 2 7 4 6 4 3 5 4 3 2 3 4 8 8 11 13 12 14 13 12 9 9 10 11 8 7 8 8 8 7 6 6
4 4 4 4 3 2 3 1 2 1 1 1 2 5 5 7 5 5 3 4 5 4 5 5 6 8 9 11 14 13 13 12 13 10 10 11 11 9 8 8 8 8 7 7 7
4 4 4 4 3 3 2 3 5 6 5 7 6 6 6 4 4 5 4 4 5 6 8 6 9 11 9 9 9 11 13 13 11 10 11 12 12 11 9 9 9 9 9 8 8
4 4 4 4 3 3 3 6 8 7 8 6 6 5 4 4 7 5 4 7 7 9 8 9 11 8 7 9 10 11 12 13 11 10 11 12 12 10 9 9 9 9 9 9 8
4 4 4 4 4 4 6 8 5 5 8 8 6 5 6 4 6 6 5 6 8 9 9 11 9 9 9 10 11 11 12 12 12 11 10 12 13 11 9 9 9 8 8 8 9
4 4 4 4 6 6 8 6 4 4 10 11 8 7 6 6 7 6 5 7 8 9 9 9 8 10 10 11 10 12 9 10 11 13 15 12 16 12 10 9 8 8 8 8 9
4 4 4 5 7 8 8 6 4 5 16 10 9 5 5 8 8 7 5 7 9 9 10 10 10 10 11 10 9 11 9 11 11 12 13 13 15 13 10 11 9 9 8 8 8
4 5 5 6 6 7 6 5 4 12 15 11 8 9 9 8 8 7 7 6 7 10 9 10 7 9 9 9 9 9 10 10 11 13 16 13 14 13 11 10 9 9 9 8 9
4 6 6 7 9 6 5 5 12 14 13 14 12 10 11 10 10 9 10 10 11 13 12 10 10 9 9 11 9 10 12 17 19 19 18 13 14 12 9 9 9 9 8 8 8
5 7 7 7 6 6 5 9 16 18 16 12 12 12 13 11 11 10 11 11 10 11 12 14 14 11 9 10 11 11 11 16 20 18 17 13 16 11 8 8 8 8 8 8 8
5 6 7 7 6 5 7 13 15 16 14 14 13 14 14 12 12 11 12 12 13 12 14 14 14 10 10 9 9 11 13 9 15 15 17 14 11 8 7 8 8 8 8 8 8
7 8 8 7 6 6 10 15 15 13 13 13 16 14 17 15 14 13 13 13 13 12 10 12 15 11 10 9 9 10 9 14 14 19 19 15 14 13 10 10 9 9 9 9 8
7 10 7 7 6 8 13 15 14 13 13 14 15 16 16 15 14 14 14 13 12 13 11 12 13 13 10 11 12 11 12 12 12 13 18 18 14 9 10 9 10 9 9 9 9
8 11 7 7 11 12 14 15 14 14 13 14 13 14 15 15 16 15 14 12 11 12 15 12 14 16 14 9 9 10 11 12 17 16 14 15 15 7 8 9 10 10 10 9 8
9 10 7 7 13 14 15 15 14 14 14 15 15 14 13 16 18 16 14 11 12 13 14 13 15 18 16 13 11 13 13 13 14 14 17 18 15 7 8 10 10 10 9 9 9
9 12 10 9 11 13 16 16 16 13 14 13 14 13 15 16 14 16 15 12 12 12 11 11 15 17 19 16 15 17 16 14 15 19 18 17 15 12 13 13 11 10 9 9 9
9 13 14 13 13 13 14 15 16 16 13 12 14 14 14 18 17 17 15 13 12 11 12 12 18 16 16 16 16 16 17 16 17 17 20 19 19 16 14 13 12 10 10 11 11
10 11 12 14 14 14 14 15 15 14 14 15 15 13 13 15 14 16 14 15 15 12 13 12 17 15 18 15 15 17 16 16 16 15 16 16 17 13 12 11 12 11 11 12 12
8 8 9 12 13 14 14 14 14 12 12 11 12 12 13 12 10 10 10 10 11 13 14 14 15 17 20 15 16 21 17 16 15 15 15 19 15 12 13 13 12 12 12 11 11